Camdenton, MO

8:06 AM CDT on April 25, 2017 (GMT -0500)
Camdenton

Weather History for KH21 - January, 2014

Change the Weather History Date:

Thursday, January 23, 2014

  Actual Average (KAIZ) Record (KAIZ)
Temperature  
Mean Temperature 11 °F -  
Max Temperature 17 °F 39 °F 71 °F (2002)
Min Temperature 5 °F 21 °F 0 °F (2003)
Degree Days  
Heating Degree Days 54    
Moisture  
Dew Point -5 °F    
Average Humidity 52    
Maximum Humidity 66    
Minimum Humidity 38    
Precipitation  
Precipitation 0.00 in - - ()
Sea Level Pressure  
Sea Level Pressure 30.65 in    
Wind  
Wind Speed 10 mph (WNW)    
Max Wind Speed 17 mph    
Max Gust Speed 30 mph    
Visibility 10 miles    
Events      
Averages and records for this station are not official NWS values.
T = Trace of Precipitation, MM = Missing Value Source: NWS Daily Summary

Daily Weather History Graph

Daily Weather History Graph

Search for Another Location

Airport or City:

Trip Planner

Search our weather history database for the weather conditions in past years. The results will help you decide how hot, cold, wet, or windy it might be!

Date:

Astronomy

Jan. 23, 2014 Rise Set
Actual Time 7:21 AM CST 5:23 PM CST
Civil Twilight 6:53 AM CST 5:52 PM CST
Nautical Twilight 6:21 AM CST 6:24 PM CST
Astronomical Twilight 5:50 AM CST 6:55 PM CST
Moon No Moon Rise 11:04 AM CST (1/23)
Length of Visible Light 10h 58m
Length of Day
10h 02m
Waning Gibbous, 55% of the Moon is Illuminated
Jan 23
Waning Gibbous
Jan 23
Last Quarter
Jan 30
New
Feb 6
First Quarter
Feb 14
Full

Hourly Weather History & Observations

Time (CST) Temp. Windchill Dew Point Humidity Pressure Visibility Wind Dir Wind Speed Gust Speed Precip Events Conditions
12:15 AM 17.6 °F 2.2 °F -0.4 °F 45% 30.38 in 10.0 mi NNW 17.3 mph 29.9 mph N/A   Clear
12:35 AM 15.8 °F 2.1 °F -0.4 °F 49% 30.39 in 10.0 mi NNW 12.7 mph 19.6 mph N/A   Clear
12:55 AM 14.0 °F 0.5 °F -0.4 °F 53% 30.40 in 10.0 mi NNW 11.5 mph 17.3 mph N/A   Clear
1:15 AM 14.0 °F -0.8 °F -2.2 °F 49% 30.41 in 10.0 mi NW 13.8 mph 25.3 mph N/A   Clear
1:35 AM 12.2 °F -1.8 °F -4.0 °F 48% 30.43 in 10.0 mi North 11.5 mph 19.6 mph N/A   Clear
1:55 AM 12.2 °F -3.1 °F -2.2 °F 53% 30.44 in 10.0 mi NNW 13.8 mph 18.4 mph N/A   Clear
2:15 AM 12.2 °F -3.1 °F -0.4 °F 57% 30.46 in 10.0 mi NW 13.8 mph - N/A   Clear
2:35 AM 10.4 °F -7.2 °F -2.2 °F 57% 30.47 in 10.0 mi NW 17.3 mph 21.9 mph N/A   Clear
2:55 AM 10.4 °F -4.8 °F -5.8 °F 48% 30.48 in 10.0 mi NNW 12.7 mph 19.6 mph N/A   Clear
3:15 AM 8.6 °F -6.3 °F -5.8 °F 52% 30.49 in 10.0 mi NNW 11.5 mph 24.2 mph N/A   Clear
3:35 AM 8.6 °F -3.7 °F -5.8 °F 52% 30.50 in 10.0 mi NNW 8.1 mph 19.6 mph N/A   Clear
3:55 AM 8.6 °F -4.7 °F -4.0 °F 57% 30.51 in 10.0 mi NNW 9.2 mph - N/A   Clear
4:15 AM 8.6 °F -2.6 °F -4.0 °F 57% 30.51 in 10.0 mi NNW 6.9 mph - N/A   Clear
4:35 AM 8.6 °F -6.3 °F -4.0 °F 57% 30.53 in 10.0 mi NNW 11.5 mph - N/A   Clear
4:55 AM 6.8 °F -6.9 °F -4.0 °F 61% 30.54 in 10.0 mi NNW 9.2 mph - N/A   Clear
5:15 AM 5.0 °F -9.1 °F -4.0 °F 66% 30.56 in 10.0 mi NNW 9.2 mph - N/A   Clear
5:35 AM 5.0 °F -8.1 °F -4.0 °F 66% 30.57 in 10.0 mi NNW 8.1 mph - N/A   Clear
5:55 AM 5.0 °F -10.8 °F -5.8 °F 61% 30.59 in 10.0 mi NNW 11.5 mph - N/A   Clear
6:15 AM 5.0 °F -8.1 °F -7.6 °F 56% 30.59 in 10.0 mi NNW 8.1 mph - N/A   Clear
6:35 AM 5.0 °F -6.9 °F -5.8 °F 61% 30.62 in 10.0 mi NNW 6.9 mph - N/A   Clear
6:55 AM 5.0 °F -5.6 °F -5.8 °F 61% 30.62 in 10.0 mi NNW 5.8 mph - N/A   Clear
7:15 AM 5.0 °F -8.1 °F -4.0 °F 66% 30.63 in 10.0 mi NNW 8.1 mph - N/A   Clear
7:35 AM 5.0 °F -6.9 °F -4.0 °F 66% 30.65 in 10.0 mi NW 6.9 mph - N/A   Clear
7:55 AM 5.0 °F -10.0 °F -4.0 °F 66% 30.65 in 10.0 mi NW 10.4 mph - N/A   Clear
8:15 AM 5.0 °F -10.0 °F -4.0 °F 66% 30.66 in 10.0 mi NW 10.4 mph - N/A   Clear
8:35 AM 5.0 °F -10.8 °F -4.0 °F 66% 30.67 in 10.0 mi WNW 11.5 mph - N/A   Clear
8:55 AM 6.8 °F -9.3 °F -4.0 °F 61% 30.69 in 10.0 mi NW 12.7 mph - N/A   Clear
9:15 AM 6.8 °F -7.8 °F -5.8 °F 56% 30.70 in 10.0 mi NW 10.4 mph - N/A   Clear
9:35 AM 8.6 °F -6.3 °F -5.8 °F 52% 30.71 in 10.0 mi NW 11.5 mph 18.4 mph N/A   Clear
9:55 AM 8.6 °F -5.5 °F -5.8 °F 52% 30.72 in 10.0 mi NNW 10.4 mph 17.3 mph N/A   Clear
10:15 AM 8.6 °F -4.7 °F -5.8 °F 52% 30.73 in 10.0 mi NW 9.2 mph - N/A   Clear
10:35 AM 8.6 °F -4.7 °F -4.0 °F 57% 30.74 in 10.0 mi NW 9.2 mph - N/A   Clear
10:55 AM 8.6 °F -4.7 °F -5.8 °F 52% 30.74 in 10.0 mi NW 9.2 mph - N/A   Clear
11:15 AM 8.6 °F -3.7 °F -4.0 °F 57% 30.74 in 10.0 mi NW 8.1 mph - N/A   Clear
11:35 AM 10.4 °F -2.4 °F -5.8 °F 48% 30.74 in 10.0 mi NW 9.2 mph - N/A   Clear
11:55 AM 10.4 °F -2.4 °F -5.8 °F 48% 30.73 in 10.0 mi WNW 9.2 mph 17.3 mph N/A   Clear
12:15 PM 10.4 °F -4.8 °F -5.8 °F 48% 30.73 in 10.0 mi West 12.7 mph - N/A   Clear
12:35 PM 10.4 °F -2.4 °F -5.8 °F 48% 30.72 in 10.0 mi NW 9.2 mph - N/A   Clear
12:55 PM 12.2 °F 0.7 °F -5.8 °F 45% 30.72 in 10.0 mi WNW 8.1 mph - N/A   Clear
1:15 PM 12.2 °F -1.0 °F -5.8 °F 45% 30.72 in 10.0 mi WNW 10.4 mph - N/A   Clear
1:35 PM 12.2 °F 0.7 °F -5.8 °F 45% 30.72 in 10.0 mi WNW 8.1 mph 17.3 mph N/A   Clear
1:55 PM 12.2 °F -0.2 °F -5.8 °F 45% 30.71 in 10.0 mi NW 9.2 mph - N/A   Clear
2:15 PM 12.2 °F 0.7 °F -5.8 °F 45% 30.71 in 10.0 mi WNW 8.1 mph - N/A   Clear
2:35 PM 12.2 °F -1.0 °F -5.8 °F 45% 30.71 in 10.0 mi WNW 10.4 mph - N/A   Clear
2:55 PM 14.0 °F 2.9 °F -5.8 °F 41% 30.71 in 10.0 mi NW 8.1 mph - N/A   Clear
3:15 PM 14.0 °F 1.2 °F -5.8 °F 41% 30.71 in 10.0 mi NW 10.4 mph - N/A   Clear
3:35 PM 14.0 °F 2.0 °F -5.8 °F 41% 30.71 in 10.0 mi WNW 9.2 mph - N/A   Clear
3:55 PM 14.0 °F 1.2 °F -5.8 °F 41% 30.71 in 10.0 mi WNW 10.4 mph - N/A   Clear
4:15 PM 15.8 °F 6.1 °F -5.8 °F 38% 30.71 in 10.0 mi West 6.9 mph - N/A   Clear
4:35 PM 14.0 °F 2.9 °F -7.6 °F 38% 30.71 in 10.0 mi WNW 8.1 mph - N/A   Clear
4:55 PM 14.0 °F 3.9 °F -5.8 °F 41% 30.71 in 10.0 mi WNW 6.9 mph - N/A   Clear
5:15 PM 14.0 °F 2.9 °F -5.8 °F 41% 30.72 in 10.0 mi WNW 8.1 mph - N/A   Clear
5:35 PM 12.2 °F 1.7 °F -5.8 °F 45% 30.71 in 10.0 mi West 6.9 mph - N/A   Clear
5:55 PM 12.2 °F 4.3 °F -5.8 °F 45% 30.72 in 10.0 mi West 4.6 mph - N/A   Clear
6:15 PM 12.2 °F 4.3 °F -5.8 °F 45% 30.72 in 10.0 mi West 4.6 mph - N/A   Clear
6:35 PM 12.2 °F 4.3 °F -5.8 °F 45% 30.72 in 10.0 mi WSW 4.6 mph - N/A   Clear
6:55 PM 10.4 °F 0.8 °F -5.8 °F 48% 30.72 in 10.0 mi West 5.8 mph - N/A   Clear
7:15 PM 10.4 °F 0.8 °F -5.8 °F 48% 30.72 in 10.0 mi West 5.8 mph - N/A   Clear
7:35 PM 10.4 °F 2.2 °F -4.0 °F 52% 30.72 in 10.0 mi WSW 4.6 mph - N/A   Clear
7:55 PM 10.4 °F 4.0 °F -4.0 °F 52% 30.72 in 10.0 mi WSW 3.5 mph - N/A   Clear
8:35 PM 8.6 °F -1.3 °F -4.0 °F 57% 30.71 in 10.0 mi SW 5.8 mph - N/A   Clear
8:55 PM 8.6 °F 0.1 °F -4.0 °F 57% 30.71 in 10.0 mi WSW 4.6 mph - N/A   Clear
9:15 PM 8.6 °F -1.3 °F -4.0 °F 57% 30.71 in 10.0 mi WSW 5.8 mph - N/A   Clear
9:55 PM 8.6 °F 0.1 °F -4.0 °F 57% 30.72 in 10.0 mi WSW 4.6 mph - N/A   Clear
10:15 PM 8.6 °F 0.1 °F -4.0 °F 57% 30.72 in 10.0 mi WSW 4.6 mph - N/A   Clear
10:35 PM 8.6 °F 0.1 °F -4.0 °F 57% 30.72 in 10.0 mi WSW 4.6 mph - N/A   Clear
10:55 PM 8.6 °F 0.1 °F -4.0 °F 57% 30.71 in 10.0 mi SW 4.6 mph - N/A   Clear
11:15 PM 8.6 °F 0.1 °F -4.0 °F 57% 30.71 in 10.0 mi SW 4.6 mph - N/A   Clear
11:35 PM 8.6 °F 2.0 °F -4.0 °F 57% 30.70 in 10.0 mi SSW 3.5 mph - N/A   Clear
11:55 PM 6.8 °F -2.0 °F -4.0 °F 61% 30.69 in 10.0 mi SSW 4.6 mph - N/A   Clear